SCOUT X-4 DEB, 3750

Orbit data source: Space-Track

SCOUT X-4 DEB, 3750 is space debris in LEO originally from a launch on Thu, 19 Dec 1963 UTC launched from the Air Force Western Test Range (AFWTR). Debris objects in space refer to the collection of defunct objects orbiting the Earth. Examples of debris include non-operational satellites, rocket bodies, and fragments generated from explosions, collisions, or faulty payload assembly.

Loading next visibility...
Identifier
3750, 1963-053J
Orbit
LEO
Country
Flag of USUS
Related business
Manufacturer
Unknown
Mission
Spacecraft
Bus & Motor
Unknown
Mass
Unknown
Launch date (UTC)
1963-12-19 (62 years ago)
Launch vehicle
Unknown
Launch site
Air Force Western Test Range (AFWTR)
Object type
Payload
Rocket body
Debris
Shape & HBR
Unknown
Radar Cross Section
Small (<0.1 m²)

Expand to show TLE details & history
Last TLE update: 1 day ago

TLE from 1 day ago
0 SCOUT X-4 DEB
1 03750U 63053J   25241.96964126  .00053150  00000-0  70520-2 0  9999
2 03750  78.5692  82.6081 0195475 118.5625 243.5397 14.67102996765532
Epoch: 2025-08-29T23:16Z
TLE epoch observation values (Epoch: 2025-08-29T23:16:17.004Z)
Latitude
-0.00001°
Longitude
115.12659°
Altitude
736.745 km
Speed
7.453 km/s
True Right ascension
05h 30m 25s
True Declination
0° 00' 00"
Sunlit
Object was in daylight at epoch
Visualization orbit readout
Latitude
Unknown
Longitude
Unknown
Altitude
Unknown
Speed
Unknown
Apparent Right ascension
Unknown
Apparent Declination
Unknown
Sunlit
N/A
Visualization observer readout
Local Sidereal Time
21:35:56
Azimuth
Unknown
Elevation
Unknown
Doppler factor
Unknown
Orbital elements
Apogee altitude
805.305 km
Perigee altitude
529.853 km
Semi-major axis
7,045.716 km
Eccentricity
0.01955
Inclination
78.5692°
RAAN
82.6081°
Arg. of periapsis
118.5625°
True anomaly
241.55638°
Mean anomaly
243.5397°
Eccentric anomaly
242.54584°
Mean motion
3.66991 °/min
Orbital period
98.1 mins
BSTAR
0.007052
Loading maneuver chart data...
Computing Atmospheric mass density...
Loading historical data...
Loading historical data...
Loading historical data...
Loading historical data...
Loading historical data...
Loading historical data...
Loading historical data...

Documentation

Showing up to 5 results
|